Time,TemperatureF,DewpointF,PressureIn,WindDirection,WindDirectionDegrees,WindSpeedMPH,WindSpeedGustMPH,Humidity,HourlyPrecipIn,Conditions,Clouds,dailyrainin,SoftwareType,DateUTC
2013-08-20 00:11:00,68.0,54.0,29.91,WNW,297,4.0,5.0,62,0.00,,,0.00,,2013-08-20 07:11:00,
2013-08-20 00:52:00,65.0,55.0,29.91,SSE,156,4.0,5.0,69,0.00,,,0.00,,2013-08-20 07:52:00,
2013-08-20 01:11:00,65.0,54.0,29.91,SSE,156,2.0,5.0,67,0.00,,,0.00,,2013-08-20 08:11:00,
2013-08-20 01:21:00,66.0,55.0,29.91,SSE,156,1.0,3.0,68,0.00,,,0.00,,2013-08-20 08:21:00,
2013-08-20 01:51:00,67.0,53.0,29.91,ESE,121,1.0,4.0,61,0.00,,,0.00,,2013-08-20 08:51:00,
2013-08-20 02:11:00,68.0,53.0,29.91,ESE,121,3.0,4.0,58,0.00,,,0.00,,2013-08-20 09:11:00,
2013-08-20 02:42:00,67.0,53.0,29.90,ESE,121,0.0,0.0,60,0.00,,,0.00,,2013-08-20 09:42:00,
2013-08-20 02:53:00,67.0,52.0,29.90,ESE,121,0.0,0.0,59,0.00,,,0.00,,2013-08-20 09:53:00,
2013-08-20 03:12:00,67.0,50.0,29.90,ESE,121,0.0,0.0,54,0.00,,,0.00,,2013-08-20 10:12:00,
2013-08-20 03:42:00,67.0,48.0,29.90,ESE,121,0.0,0.0,50,0.00,,,0.00,,2013-08-20 10:42:00,
2013-08-20 03:52:00,64.0,53.0,29.90,ESE,121,3.0,4.0,67,0.00,,,0.00,,2013-08-20 10:52:00,
2013-08-20 04:11:00,64.0,53.0,29.90,WSW,257,4.0,5.0,68,0.00,,,0.00,,2013-08-20 11:11:00,
2013-08-20 04:42:00,67.0,51.0,29.89,West,260,6.0,7.0,56,0.00,,,0.00,,2013-08-20 11:42:00,
2013-08-20 04:51:00,67.0,48.0,29.89,WSW,254,4.0,7.0,51,0.00,,,0.00,,2013-08-20 11:51:00,
2013-08-20 05:12:00,67.0,50.0,29.89,WSW,254,4.0,5.0,54,0.00,,,0.00,,2013-08-20 12:12:00,
2013-08-20 05:41:00,66.0,50.0,29.89,WSW,254,0.0,0.0,56,0.00,,,0.00,,2013-08-20 12:41:00,
2013-08-20 05:51:00,66.0,50.0,29.89,WSW,254,0.0,0.0,56,0.00,,,0.00,,2013-08-20 12:51:00,
2013-08-20 06:11:00,67.0,47.0,29.89,WSW,254,3.0,4.0,49,0.00,,,0.00,,2013-08-20 13:11:00,
2013-08-20 07:11:00,65.0,50.0,29.90,WSW,253,0.0,0.0,58,0.00,,,0.00,,2013-08-20 14:11:00,
2013-08-20 07:52:00,66.0,51.0,29.91,ESE,123,4.0,7.0,58,0.00,,,0.00,,2013-08-20 14:52:00,
2013-08-20 08:11:00,66.0,51.0,29.92,ESE,123,0.0,2.0,59,0.00,,,0.00,,2013-08-20 15:11:00,
2013-08-20 08:43:00,61.0,51.0,29.93,South,175,3.0,4.0,70,0.00,,,0.00,,2013-08-20 15:43:00,
2013-08-20 08:53:00,55.0,52.0,29.93,West,264,3.0,7.0,89,0.00,,,0.00,,2013-08-20 15:53:00,
2013-08-20 09:15:00,55.0,53.0,29.93,West,260,6.0,8.0,93,0.00,,,0.00,,2013-08-20 16:15:00,
2013-08-20 09:30:00,-999.0,-99.9,29.93,West,259,6.0,8.0,95,0.00,,,0.00,,2013-08-20 16:30:00,
2013-08-20 09:42:00,55.0,54.0,29.94,WSW,257,5.0,8.0,95,0.00,,,0.00,,2013-08-20 16:42:00,
2013-08-20 09:52:00,56.0,55.0,29.94,West,263,7.0,10.0,96,0.00,,,0.00,,2013-08-20 16:52:00,
2013-08-20 10:12:00,57.0,56.0,29.94,West,264,4.0,12.0,96,0.00,,,0.00,,2013-08-20 17:12:00,
2013-08-20 10:24:00,58.0,57.0,29.95,WNW,294,8.0,12.0,95,0.00,,,0.00,,2013-08-20 17:24:00,
2013-08-20 10:43:00,59.0,57.0,29.95,West,261,9.0,12.0,93,0.00,,,0.00,,2013-08-20 17:43:00,
2013-08-20 10:52:00,60.0,57.0,29.95,West,270,9.0,14.0,91,0.00,,,0.00,,2013-08-20 17:52:00,
2013-08-20 11:12:00,61.0,57.0,29.94,West,272,9.0,12.0,88,0.00,,,0.00,,2013-08-20 18:12:00,
2013-08-20 11:21:00,62.0,58.0,29.94,West,270,7.0,11.0,86,0.00,,,0.00,,2013-08-20 18:21:00,
2013-08-20 11:52:00,64.0,58.0,29.94,WNW,291,6.0,12.0,80,0.00,,,0.00,,2013-08-20 18:52:00,
2013-08-20 12:11:00,66.0,59.0,29.94,WSW,257,3.0,7.0,79,0.00,,,0.00,,2013-08-20 19:11:00,
2013-08-20 12:21:00,69.0,59.0,29.93,West,281,5.0,8.0,71,0.00,,,0.00,,2013-08-20 19:21:00,
2013-08-20 12:41:00,69.0,59.0,29.93,West,280,6.0,12.0,70,0.00,,,0.00,,2013-08-20 19:41:00,
2013-08-20 12:52:00,71.0,60.0,29.92,WNW,302,7.0,10.0,68,0.00,,,0.00,,2013-08-20 19:52:00,
2013-08-20 13:11:00,73.0,60.0,29.92,West,281,7.0,10.0,63,0.00,,,0.00,,2013-08-20 20:11:00,
2013-08-20 13:21:00,75.0,60.0,29.92,West,259,6.0,10.0,60,0.00,,,0.00,,2013-08-20 20:21:00,
2013-08-20 13:42:00,75.0,60.0,29.92,WNW,297,8.0,13.0,59,0.00,,,0.00,,2013-08-20 20:42:00,
2013-08-20 13:52:00,75.0,60.0,29.91,West,275,5.0,12.0,60,0.00,,,0.00,,2013-08-20 20:52:00,
2013-08-20 14:11:00,76.0,60.0,29.92,NW,306,8.0,12.0,57,0.00,,,0.00,,2013-08-20 21:11:00,
2013-08-20 14:22:00,76.0,59.0,29.92,West,279,7.0,12.0,56,0.00,,,0.00,,2013-08-20 21:22:00,
2013-08-20 14:44:00,76.0,59.0,29.91,WNW,298,6.0,13.0,56,0.00,,,0.00,,2013-08-20 21:44:00,
2013-08-20 14:55:00,76.0,59.0,29.91,WNW,286,7.0,12.0,55,0.00,,,0.00,,2013-08-20 21:55:00,
2013-08-20 15:14:00,75.0,58.0,29.91,WSW,257,7.0,14.0,56,0.00,,,0.00,,2013-08-20 22:14:00,
2013-08-20 15:24:00,75.0,58.0,29.90,WSW,246,6.0,11.0,55,0.00,,,0.00,,2013-08-20 22:24:00,
2013-08-20 15:42:00,73.0,56.0,29.90,West,266,7.0,12.0,56,0.00,,,0.00,,2013-08-20 22:42:00,
2013-08-20 15:53:00,72.0,57.0,29.90,West,269,9.0,12.0,60,0.00,,,0.00,,2013-08-20 22:53:00,
2013-08-20 16:12:00,71.0,57.0,29.90,West,260,7.0,10.0,62,0.00,,,0.00,,2013-08-20 23:12:00,
2013-08-20 16:22:00,72.0,58.0,29.89,West,269,7.0,11.0,61,0.00,,,0.00,,2013-08-20 23:22:00,
2013-08-20 16:52:00,71.0,57.0,29.88,WNW,284,8.0,12.0,62,0.00,,,0.00,,2013-08-20 23:52:00,
2013-08-20 17:12:00,70.0,57.0,29.88,West,274,9.0,13.0,63,0.00,,,0.00,,2013-08-21 00:12:00,
2013-08-20 17:22:00,71.0,57.0,29.88,WSW,250,9.0,14.0,61,0.00,,,0.00,,2013-08-21 00:22:00,
2013-08-20 17:42:00,71.0,57.0,29.88,NW,305,6.0,11.0,61,0.00,,,0.00,,2013-08-21 00:42:00,
2013-08-20 17:52:00,71.0,56.0,29.87,WNW,286,6.0,14.0,60,0.00,,,0.00,,2013-08-21 00:52:00,
2013-08-20 18:11:00,71.0,56.0,29.87,WNW,289,8.0,11.0,59,0.00,,,0.00,,2013-08-21 01:11:00,
2013-08-20 18:21:00,70.0,56.0,29.87,West,263,10.0,14.0,61,0.00,,,0.00,,2013-08-21 01:21:00,
2013-08-20 18:42:00,69.0,56.0,29.86,West,271,9.0,13.0,63,0.00,,,0.00,,2013-08-21 01:42:00,
2013-08-20 18:52:00,68.0,56.0,29.86,WNW,294,9.0,14.0,66,0.00,,,0.00,,2013-08-21 01:52:00,
2013-08-20 19:12:00,66.0,56.0,29.86,West,268,8.0,11.0,70,0.00,,,0.00,,2013-08-21 02:12:00,
2013-08-20 19:22:00,65.0,56.0,29.86,West,273,8.0,10.0,72,0.00,,,0.00,,2013-08-21 02:22:00,
2013-08-20 19:42:00,64.0,56.0,29.86,West,269,6.0,9.0,74,0.00,,,0.00,,2013-08-21 02:42:00,
2013-08-20 20:12:00,63.0,54.0,29.87,West,270,2.0,6.0,72,0.00,,,0.00,,2013-08-21 03:12:00,
2013-08-20 20:22:00,60.0,54.0,29.88,West,265,4.0,7.0,81,0.00,,,0.00,,2013-08-21 03:22:00,
2013-08-20 20:44:00,64.0,49.0,29.88,West,265,2.0,5.0,59,0.00,,,0.00,,2013-08-21 03:44:00,
2013-08-20 21:13:00,63.0,53.0,29.89,West,265,4.0,6.0,71,0.00,,,0.00,,2013-08-21 04:13:00,
2013-08-20 21:23:00,58.0,53.0,29.89,WSW,252,7.0,8.0,84,0.00,,,0.00,,2013-08-21 04:23:00,
2013-08-20 21:44:00,62.0,51.0,29.90,West,263,4.0,8.0,68,0.00,,,0.00,,2013-08-21 04:44:00,
2013-08-20 21:54:00,62.0,52.0,29.90,West,271,6.0,9.0,70,0.00,,,0.00,,2013-08-21 04:54:00,
2013-08-20 22:12:00,61.0,52.0,29.90,West,270,2.0,6.0,72,0.00,,,0.00,,2013-08-21 05:12:00,
2013-08-20 22:22:00,67.0,50.0,29.90,West,269,5.0,6.0,55,0.00,,,0.00,,2013-08-21 05:22:00,
2013-08-20 23:12:00,71.0,45.0,29.91,West,271,0.0,0.0,39,0.00,,,0.00,,2013-08-21 06:12:00,
2013-08-20 23:42:00,72.0,43.0,29.91,West,271,4.0,5.0,35,0.00,,,0.00,,2013-08-21 06:42:00,